OPS 4682 DEB, 38372

Orbit data source: Space-Track

OPS 4682 DEB, 38372 is space debris in LEO originally from a launch on Sat, 03 Apr 1965 UTC launched from the Air Force Western Test Range (AFWTR). Debris objects in space refer to the collection of defunct objects orbiting the Earth. Examples of debris include non-operational satellites, rocket bodies, and fragments generated from explosions, collisions, or faulty payload assembly.

Loading next visibility...
Identifier
38372, 1965-027BZ
Orbit
LEO
Country
Flag of USUS
Related business
Manufacturer
Unknown
Mission
Spacecraft
Bus & Motor
Unknown
Mass
Unknown
Launch date (UTC)
1965-04-03 (61 years ago)
Launch vehicle
Unknown
Launch site
Air Force Western Test Range (AFWTR)
Object type
Payload
Rocket body
Debris
Shape & HBR
Unknown shape, 0.1 m
Radar Cross Section
Medium (>0.1 m² and <1 m²)

Expand to show TLE details & history
Last TLE update: 1 day ago

TLE from 1 day ago
0 OPS 4682 DEB
1 38372U 65027BZ  26206.97133735  .00000184  00000-0  60634-3 0  9992
2 38372  90.3083  41.0617 0028705 296.0703  63.7464 12.97940853668509
Epoch: 2026-07-25T23:18Z
TLE epoch observation values (Epoch: 2026-07-25T23:18:43.547Z)
Latitude
0.00001°
Longitude
107.70429°
Altitude
1,263.383 km
Speed
7.228 km/s
True Right ascension
02h 44m 14s
True Declination
0° 00' 00"
Sunlit
Object was in daylight at epoch
Visualization orbit readout
Latitude
Unknown
Longitude
Unknown
Altitude
Unknown
Speed
Unknown
Apparent Right ascension
Unknown
Apparent Declination
Unknown
Sunlit
N/A
Visualization observer readout
Local Sidereal Time
20:29:48
Azimuth
Unknown
Elevation
Unknown
Doppler factor
Unknown
Orbital elements
Apogee altitude
1,289.241 km
Perigee altitude
1,245.349 km
Semi-major axis
7,645.432 km
Eccentricity
0.00287
Inclination
90.3083°
RAAN
41.0617°
Arg. of periapsis
296.0703°
True anomaly
64.04187°
Mean anomaly
63.7464°
Eccentric anomaly
63.89409°
Mean motion
3.24668 °/min
Orbital period
110.88 mins
BSTAR
0.00060634
Loading maneuver chart data...
Computing Atmospheric mass density...
Loading historical data...
Loading historical data...
Loading historical data...
Loading historical data...
Loading historical data...
Loading historical data...
Loading historical data...

Documentation

Showing up to 5 results
|